Location: Twentynine Palms Airport
(34.1316°N, 115.9458°W)
Time: 03:51:43
(UTC-07:00)

Oscar 19 - Visible Passes

Search period start: 24 July 2017 00:00
Search period end: 03 August 2017 00:00
Orbit: 773 x 791 km, 98.6° (Epoch: 23 July)

Date Brightness Start Highest point End Pass type
(mag) Time Alt. Az. Time Alt. Az. Time Alt. Az.
24 Jul 11.4 02:19:01 10° NNE 02:22:49 51° NNE 02:22:49 51° NNE visible
25 Jul 12.1 01:47:27 10° NNE 01:50:33 31° NE 01:50:33 31° NE visible
25 Jul 12.3 03:27:41 10° NNW 03:31:06 20° WNW 03:31:06 20° WNW visible
26 Jul 12.9 01:16:34 10° NE 01:18:16 16° ENE 01:18:16 16° ENE visible
26 Jul 11.6 02:54:57 10° N 02:58:49 36° NW 02:58:49 36° NW visible
27 Jul 11.4 02:22:51 10° N 02:26:32 48° N 02:26:32 48° N visible
28 Jul 12.1 01:51:13 10° NNE 01:54:15 32° NE 01:54:15 32° NE visible
28 Jul 12.4 03:31:41 10° NNW 03:34:48 18° WNW 03:34:48 18° WNW visible
29 Jul 12.9 01:20:14 10° NE 01:21:59 17° ENE 01:21:59 17° ENE visible
29 Jul 11.8 02:58:52 10° N 03:02:32 33° NW 03:02:32 33° NW visible
30 Jul 11.6 02:26:42 10° N 02:30:15 45° N 02:30:15 45° N visible
31 Jul 12.2 01:55:01 10° NNE 01:57:58 32° NE 01:57:58 32° NE visible
31 Jul 12.5 03:35:43 10° NNW 03:38:31 17° WNW 03:38:31 17° WNW visible
01 Aug 12.9 01:23:55 10° NE 01:25:41 18° ENE 01:25:41 18° ENE visible
01 Aug 11.9 03:02:46 10° N 03:06:14 30° NW 03:06:14 30° NW visible
02 Aug 11.7 02:30:33 10° N 02:33:56 41° N 02:33:56 41° N visible
